Location: Newark
(48.7500°N, 4.6667°E)
Time: 06:13:43
(UTC+00:00)

OTV 5 (USA 277) - Visible Passes

Search period start: 17 October 2019 00:00
Search period end: 27 October 2019 00:00
Orbit: 310 x 324 km, 54.5° (Epoch: 08 October)

Date Brightness Start Highest point End Pass type
(mag) Time Alt. Az. Time Alt. Az. Time Alt. Az.
17 Oct ? 04:21:38 53° N 04:21:55 58° NNE 04:24:38 10° ESE visible
18 Oct ? 04:36:01 51° W 04:36:30 67° SSW 04:39:13 10° SE visible
19 Oct ? 04:50:31 27° WSW 04:50:57 28° SW 04:53:22 10° SSE visible
20 Oct ? 05:05:08 13° SW 05:05:17 13° SW 05:06:41 10° SSW visible
